AB4KN Weather Reports


Display with metric or nautical units.
time (UTC)temp
F
wind
direction
speed
MPH
gust
MPH
rain 1hr
in
rain 24hr
in
rain mn
in
humidity
%
barometer
mb
20260510142421 64 296 0.0 0.0 0.00 0.00 0.00 89 1023.1
20260510141917 63 290 0.0 0.0 0.00 0.00 0.00 89 1023.2
20260510141415 63 296 0.0 0.0 0.00 0.00 0.00 89 1023.1
20260510140912 63 296 0.0 0.0 0.00 0.00 0.00 89 1023.2
20260510140408 62 298 0.0 0.0 0.00 0.00 0.00 89 1023.3
20260510135901 62 257 0.0 0.0 0.00 0.00 0.00 89 1023.4
20260510135358 62 291 0.0 0.0 0.00 0.00 0.00 89 1023.2
20260510134855 62 292 0.0 0.0 0.00 0.00 0.00 89 1023.1
20260510134351 62 292 0.0 0.0 0.00 0.00 0.00 89 1022.9
20260510133848 62 299 0.0 0.0 0.00 0.00 0.00 89 1022.9
20260510133344 62 301 0.0 0.0 0.00 0.00 0.00 89 1022.5
20260510132839 62 297 0.0 0.0 0.00 0.00 0.00 89 1022.9
20260510132338 62 297 0.0 0.0 0.00 0.00 0.00 89 1022.7
20260510131834 62 297 0.0 0.0 0.00 0.00 0.00 89 1022.4
20260510131332 62 298 0.0 0.0 0.00 0.00 0.00 89 1022.9
20260510130828 62 298 0.0 0.0 0.00 0.00 0.00 89 1022.9
20260510130326 62 298 0.0 0.0 0.00 0.00 0.00 89 1022.6
20260510125822 62 298 0.0 0.0 0.00 0.00 0.00 89 1022.9
20260510125317 62 298 0.0 0.0 0.00 0.00 0.00 89 1022.6
20260510124814 62 292 0.0 0.0 0.00 0.00 0.00 89 1022.5
20260510124306 62 292 0.0 0.0 0.00 0.00 0.00 89 1022.5
20260510123802 61 292 0.0 0.0 0.00 0.00 0.00 89 1022.3
20260510123257 61 292 0.0 0.0 0.00 0.00 0.00 89 1022.5
20260510122754 61 292 0.0 0.0 0.00 0.00 0.00 89 1022.2
20260510122250 61 292 0.0 0.0 0.00 0.00 0.00 89 1022.4
20260510121747 61 292 0.0 0.0 0.00 0.00 0.00 89 1022.2
20260510121244 61 292 0.0 0.0 0.00 0.00 0.00 89 1022.3
20260510120742 61 292 0.0 0.0 0.00 0.00 0.00 89 1022.0
20260510120238 61 291 0.0 0.0 0.00 0.00 0.00 89 1022.0
20260510115734 60 291 0.0 0.0 0.00 0.00 0.00 89 1022.0
20260510115232 60 291 0.0 0.0 0.00 0.00 0.00 89 1021.9
20260510114727 60 291 0.0 0.0 0.00 0.00 0.00 89 1021.7
20260510114224 60 291 0.0 0.0 0.00 0.00 0.00 89 1021.7
20260510113719 60 291 0.0 0.0 0.00 0.00 0.00 89 1021.3
20260510113216 60 291 0.0 0.0 0.00 0.00 0.00 89 1021.4
20260510112712 60 291 0.0 0.0 0.00 0.00 0.00 89 1021.2
20260510112210 60 290 0.0 0.0 0.00 0.00 0.00 89 1021.3
20260510111705 60 290 0.0 0.0 0.00 0.00 0.00 89 1021.2
20260510111203 60 282 0.0 0.0 0.00 0.00 0.00 89 1021.0
20260510110656 60 291 0.0 0.0 0.00 0.00 0.00 89 1020.9
20260510110155 60 291 0.0 0.0 0.00 0.00 0.00 89 1020.9
20260510105649 60 291 0.0 0.0 0.00 0.00 0.00 89 1020.8
20260510105144 60 291 0.0 0.0 0.00 0.00 0.00 89 1020.8
20260510104641 60 291 0.0 0.0 0.00 0.00 0.00 89 1020.7
20260510104138 60 291 0.0 0.0 0.00 0.00 0.00 89 1020.5
20260510103635 60 291 0.0 0.0 0.00 0.00 0.00 89 1020.5
20260510103131 60 291 0.0 0.0 0.00 0.00 0.00 89 1020.3
20260510102626 60 291 0.0 0.0 0.00 0.00 0.00 89 1020.3
20260510102122 60 291 0.0 0.0 0.00 0.00 0.00 89 1020.6
20260510101620 60 291 0.0 0.0 0.00 0.00 0.00 89 1020.3
20260510101118 60 290 0.0 0.0 0.00 0.00 0.00 89 1020.2
20260510100614 60 290 0.0 0.0 0.00 0.00 0.00 89 1020.5
20260510100112 60 290 0.0 0.0 0.00 0.00 0.00 89 1020.2
20260510095607 60 290 0.0 0.0 0.00 0.00 0.00 89 1020.5
20260510095102 60 290 0.0 0.0 0.00 0.00 0.00 89 1020.4
20260510094601 60 290 0.0 0.0 0.00 0.00 0.00 89 1020.2
20260510094057 60 290 0.0 0.0 0.00 0.00 0.00 89 1020.2
20260510093553 60 290 0.0 0.0 0.00 0.00 0.00 89 1020.0
20260510093050 60 290 0.0 0.0 0.00 0.00 0.00 89 1019.9
20260510092547 60 290 0.0 0.0 0.00 0.00 0.00 89 1020.0
20260510092046 60 290 0.0 0.0 0.00 0.00 0.00 89 1019.7
20260510091544 61 290 0.0 0.0 0.00 0.00 0.00 89 1019.8
20260510091039 60 291 0.0 0.0 0.00 0.00 0.00 89 1019.8
20260510090537 60 290 0.0 0.0 0.00 0.00 0.00 89 1019.8
20260510090033 60 290 0.0 0.0 0.00 0.00 0.00 89 1020.0
20260510085533 60 290 0.0 0.0 0.00 0.00 0.00 89 1019.7
20260510085029 60 290 0.0 0.0 0.00 0.00 0.00 89 1019.9
20260510084526 60 286 0.0 0.0 0.00 0.00 0.00 89 1019.8
20260510084023 60 290 0.0 0.0 0.00 0.00 0.00 89 1020.0
20260510083519 60 289 0.0 0.0 0.00 0.00 0.00 89 1019.4
20260510083015 60 290 0.0 0.0 0.00 0.00 0.00 89 1019.5
20260510082513 61 290 0.0 0.0 0.00 0.00 0.00 89 1019.3
20260510082013 61 290 0.0 0.0 0.00 0.00 0.00 89 1019.4
20260510081508 60 290 0.0 0.0 0.00 0.00 0.00 89 1019.5
20260510081005 61 290 0.0 0.0 0.00 0.00 0.00 89 1019.3
20260510080503 61 290 0.0 0.0 0.00 0.00 0.00 89 1019.3
20260510080000 61 290 0.0 0.0 0.00 0.00 0.00 89 1019.4
20260510075458 61 291 0.0 0.0 0.00 0.00 0.00 89 1019.3
20260510074954 61 290 0.0 0.0 0.00 0.00 0.00 89 1019.3
20260510074452 61 290 0.0 0.0 0.00 0.00 0.00 89 1019.3
20260510073947 61 290 0.0 0.0 0.00 0.00 0.00 89 1019.6
20260510073443 61 290 0.0 0.0 0.00 0.00 0.00 89 1019.4
20260510072940 61 290 0.0 0.0 0.00 0.00 0.00 89 1019.5
20260510072437 61 290 0.0 0.0 0.00 0.00 0.00 89 1019.1
20260510071932 61 290 0.0 0.0 0.00 0.00 0.00 89 1019.3
20260510071429 61 290 0.0 0.0 0.00 0.00 0.00 89 1019.5
20260510070927 61 290 0.0 0.0 0.00 0.00 0.00 89 1019.4
20260510070424 61 290 0.0 0.0 0.00 0.00 0.00 89 1019.1
20260510065920 62 290 0.0 0.0 0.00 0.00 0.00 89 1019.1
20260510065416 62 290 0.0 0.0 0.00 0.00 0.00 89 1019.0
20260510064913 62 290 0.0 0.0 0.00 0.00 0.00 89 1019.1
20260510064411 61 291 0.0 0.0 0.00 0.00 0.00 89 1018.9
20260510063907 61 290 0.0 0.0 0.00 0.00 0.00 89 1019.1
20260510063403 61 290 0.0 0.0 0.00 0.00 0.00 89 1019.0
20260510062901 61 290 0.0 0.0 0.00 0.00 0.00 89 1019.0
20260510062356 62 290 0.0 0.0 0.00 0.00 0.00 89 1019.4
20260510061852 62 290 0.0 0.0 0.00 0.00 0.00 89 1019.3
20260510061348 62 290 0.0 0.0 0.00 0.00 0.00 89 1019.1
20260510060844 62 291 0.0 0.0 0.00 0.00 0.00 89 1019.1
20260510060341 62 291 0.0 0.0 0.00 0.00 0.00 89 1019.1
20260510055838 62 291 0.0 0.0 0.00 0.00 0.00 89 1018.8
20260510055337 62 290 0.0 0.0 0.00 0.00 0.00 89 1019.1
20260510054836 62 290 0.0 0.0 0.00 0.00 0.00 89 1019.4
20260510054332 62 290 0.0 0.0 0.00 0.00 0.00 89 1019.5
20260510053827 62 290 0.0 0.0 0.00 0.00 0.00 89 1019.7
20260510053323 62 290 0.0 0.0 0.00 0.00 0.00 89 1019.6
20260510052820 62 290 0.0 0.0 0.00 0.00 0.00 89 1019.6
20260510052315 62 290 0.0 0.0 0.00 0.00 0.00 89 1019.5
20260510051812 62 291 0.0 0.0 0.00 0.00 0.00 89 1019.6
20260510051309 62 291 0.0 0.0 0.00 0.00 0.00 89 1019.5
20260510050806 62 291 0.0 0.0 0.00 0.00 0.00 89 1019.4
20260510050302 62 291 0.0 0.0 0.00 0.00 0.00 89 1019.8
20260510045800 63 291 0.0 0.0 0.00 0.00 0.00 89 1019.8
20260510045256 62 291 0.0 0.0 0.00 0.00 0.00 89 1019.7
20260510044753 62 291 0.0 0.0 0.00 0.00 0.00 89 1019.6
20260510044251 62 291 0.0 0.0 0.00 0.00 0.00 89 1019.8
20260510043746 62 291 0.0 0.0 0.00 0.00 0.00 89 1019.6
20260510043243 63 291 0.0 0.0 0.00 0.00 0.00 89 1019.8
20260510042740 63 291 0.0 0.0 0.00 0.00 0.00 89 1019.8
20260510042235 63 292 0.0 0.0 0.00 0.00 0.00 89 1019.8
20260510041732 63 292 0.0 0.0 0.00 0.00 0.00 89 1020.1
20260510041230 63 292 0.0 0.0 0.00 0.00 0.00 89 1019.9
20260510040727 63 292 0.0 0.0 0.00 0.00 0.00 89 1020.0
20260510040224 63 292 0.0 0.0 0.00 0.00 0.00 89 1019.9
20260510035719 63 292 0.0 0.0 0.00 0.00 0.00 88 1020.0
20260510035215 63 292 0.0 0.0 0.00 0.00 0.00 88 1019.9
20260510034711 63 292 0.0 0.0 0.00 0.00 0.00 88 1019.9
20260510034209 63 292 0.0 0.0 0.00 0.00 0.00 88 1020.1
20260510033705 63 293 0.0 0.0 0.00 0.00 0.00 88 1020.1
20260510033203 63 281 0.0 0.0 0.00 0.00 0.00 88 1020.4
20260510032659 64 281 0.0 0.0 0.00 0.00 0.00 87 1019.9
20260510032155 64 281 0.0 0.0 0.00 0.00 0.00 87 1020.0
20260510031649 64 281 0.0 0.0 0.00 0.00 0.00 87 1020.1
20260510031146 64 281 0.0 0.0 0.00 0.00 0.00 87 1020.0
20260510030641 64 281 0.0 0.0 0.00 0.00 0.00 87 1019.9
20260510030139 64 281 0.0 0.0 0.00 0.00 0.00 86 1019.9
20260510025636 64 278 0.0 0.0 0.00 0.00 0.00 86 1019.8
20260510025133 65 277 0.0 0.0 0.00 0.00 0.00 86 1019.7
20260510024630 65 269 0.0 2.0 0.00 0.00 0.00 86 1019.8
20260510024126 65 277 1.0 2.0 0.00 0.00 0.00 86 1019.6
20260510023622 65 274 0.0 2.0 0.00 0.00 0.00 86 1019.9
20260510023120 65 268 2.0 2.0 0.00 0.00 0.00 86 1019.7
20260510022619 65 277 2.0 2.0 0.00 0.00 0.00 86 1019.6
20260510022114 65 269 0.0 0.0 0.00 0.00 0.00 86 1019.7
20260510021610 65 266 2.0 2.0 0.00 0.00 0.00 86 1019.6
20260510021108 65 267 0.0 2.0 0.00 0.00 0.00 85 1019.5
20260510020602 65 278 0.0 0.0 0.00 0.00 0.00 85 1019.3
20260510020058 65 269 0.0 0.0 0.00 0.00 0.00 85 1019.4
20260510015554 65 269 0.0 0.0 0.00 0.00 0.00 85 1019.1
20260510015050 65 267 1.0 2.0 0.00 0.00 0.00 85 1019.1
20260510014546 65 269 0.0 0.0 0.00 0.00 0.00 85 1019.0
20260510014044 65 269 0.0 0.0 0.00 0.00 0.00 85 1019.0
20260510013538 65 269 0.0 0.0 0.00 0.00 0.00 85 1018.8
20260510013034 65 268 0.0 2.0 0.00 0.00 0.00 85 1019.1
20260510012528 65 278 0.0 0.0 0.00 0.00 0.00 85 1018.9
20260510012025 65 278 0.0 0.0 0.00 0.00 0.00 85 1018.9
20260510011524 65 278 1.0 2.0 0.00 0.00 0.00 85 1018.8
20260510011020 65 278 0.0 0.0 0.00 0.00 0.00 85 1018.9
20260510010517 65 278 0.0 0.0 0.00 0.00 0.00 85 1019.0
20260510010014 66 278 0.0 0.0 0.00 0.00 0.00 84 1018.7
20260510005510 66 278 0.0 0.0 0.00 0.00 0.00 84 1018.4
20260510005008 66 278 1.0 2.0 0.00 0.00 0.00 84 1018.7
20260510004505 66 279 0.0 0.0 0.00 0.00 0.00 84 1018.5
20260510004003 66 279 0.0 0.0 0.00 0.00 0.00 84 1018.5
20260510003459 66 278 0.0 0.0 0.00 0.00 0.00 84 1018.5
20260510002954 66 280 0.0 0.0 0.00 0.00 0.00 83 1018.2
20260510002451 66 278 0.0 0.0 0.00 0.00 0.00 83 1018.3
20260510001947 66 278 0.0 0.0 0.00 0.00 0.00 83 1018.5
20260510001445 67 278 1.0 2.0 0.00 0.00 0.00 82 1018.2
20260510000943 67 278 0.0 0.0 0.00 0.00 0.00 82 1018.0
20260510000440 67 278 0.0 0.0 0.00 0.00 0.00 82 1018.2
20260509235935 67 278 0.0 0.0 0.00 0.00 0.00 82 1018.3
20260509235432 67 269 0.0 0.0 0.00 0.00 0.00 82 1018.3
20260509234928 67 269 0.0 0.0 0.00 0.00 0.00 81 1018.2
20260509234425 68 278 0.0 0.0 0.00 0.00 0.00 81 1018.2
20260509233923 68 278 0.0 0.0 0.00 0.00 0.00 81 1018.3
20260509233420 68 278 0.0 2.0 0.00 0.00 0.00 80 1018.1
20260509232916 68 281 0.0 0.0 0.00 0.00 0.00 80 1018.0
20260509232414 68 268 0.0 0.0 0.00 0.00 0.00 80 1018.2
20260509231909 68 268 0.0 0.0 0.00 0.00 0.00 80 1017.8
20260509231406 68 268 1.0 2.0 0.00 0.00 0.00 79 1017.9
20260509230905 68 274 0.0 0.0 0.00 0.00 0.00 79 1017.5
20260509230401 68 268 2.0 2.0 0.00 0.00 0.00 79 1017.5
20260509225857 68 266 2.0 2.0 0.00 0.00 0.00 78 1017.4
20260509225354 68 204 2.0 3.0 0.00 0.00 0.00 78 1017.6
20260509224849 69 270 1.0 2.0 0.00 0.00 0.00 78 1017.3
20260509224346 69 272 0.0 0.0 0.00 0.00 0.00 78 1017.2
20260509223843 69 277 0.0 0.0 0.00 0.00 0.00 78 1017.3
20260509223339 69 270 0.0 0.0 0.00 0.00 0.00 78 1017.1
20260509222837 69 270 0.0 0.0 0.00 0.00 0.00 78 1017.2
20260509222332 69 254 2.0 3.0 0.00 0.00 0.00 77 1017.0
20260509221827 69 270 1.0 2.0 0.00 0.00 0.00 77 1017.2
20260509221325 69 280 0.0 0.0 0.00 0.00 0.00 77 1017.3
20260509220825 69 270 1.0 2.0 0.00 0.00 0.00 76 1017.0
20260509220321 69 277 0.0 0.0 0.00 0.00 0.00 76 1017.3
20260509215817 69 267 0.0 0.0 0.00 0.00 0.00 76 1017.3
20260509215314 69 269 2.0 2.0 0.00 0.00 0.00 75 1017.4
20260509214811 69 222 2.0 3.0 0.00 0.00 0.00 74 1017.6
20260509214308 69 267 0.0 0.0 0.00 0.00 0.00 75 1017.2
20260509213805 69 215 2.0 3.0 0.00 0.00 0.00 75 1017.3
20260509213300 69 254 3.0 3.0 0.00 0.00 0.00 75 1017.5
20260509212758 70 205 2.0 3.0 0.00 0.00 0.00 74 1017.6
20260509212255 70 195 2.0 3.0 0.00 0.00 0.00 74 1017.2
20260509211751 70 250 2.0 3.0 0.00 0.00 0.00 74 1017.2
20260509211247 70 289 0.0 0.0 0.00 0.00 0.00 75 1017.2
20260509210744 69 278 0.0 0.0 0.00 0.00 0.00 74 1016.9
20260509210242 69 272 1.0 2.0 0.00 0.00 0.00 75 1017.1
20260509205741 70 262 3.0 3.0 0.00 0.00 0.00 74 1016.9
20260509205236 70 254 2.0 2.0 0.00 0.00 0.00 73 1017.0
20260509204732 70 236 1.0 3.0 0.00 0.00 0.00 73 1017.0
20260509204229 69 266 1.0 2.0 0.00 0.00 0.00 73 1016.8
20260509203725 70 247 2.0 3.0 0.00 0.00 0.00 75 1017.1
20260509203223 69 265 2.0 2.0 0.00 0.00 0.00 73 1016.9
20260509202719 70 241 3.0 3.0 0.00 0.00 0.00 74 1017.2
20260509202214 70 280 0.0 0.0 0.00 0.00 0.00 73 1017.2
20260509201709 69 204 3.0 3.0 0.00 0.00 0.00 72 1017.1
20260509201206 70 272 0.0 0.0 0.00 0.00 0.00 76 1017.0
20260509200703 70 267 2.0 2.0 0.00 0.00 0.00 73 1017.1
20260509200157 70 258 0.0 0.0 0.00 0.00 0.00 73 1017.1
20260509195654 70 264 2.0 3.0 0.00 0.00 0.00 73 1017.2
20260509195150 70 254 2.0 2.0 0.00 0.00 0.00 74 1017.1
20260509194649 69 269 0.0 0.0 0.00 0.00 0.00 74 1017.3
20260509194146 69 269 1.0 2.0 0.00 0.00 0.00 73 1017.1
20260509193642 69 269 0.0 2.0 0.00 0.00 0.00 73 1017.3
20260509193138 69 274 0.0 0.0 0.00 0.00 0.00 73 1017.7
20260509192635 69 289 0.0 0.0 0.00 0.00 0.00 73 1017.5
20260509192129 69 223 2.0 3.0 0.00 0.00 0.00 72 1017.7
20260509191624 69 274 0.0 2.0 0.00 0.00 0.00 73 1017.6
20260509191121 69 273 1.0 2.0 0.00 0.00 0.00 73 1017.7
20260509190617 70 244 1.0 2.0 0.00 0.00 0.00 73 1017.6
20260509190115 69 295 0.0 0.0 0.00 0.00 0.00 73 1017.6
20260509185612 69 263 1.0 2.0 0.00 0.00 0.00 74 1017.7
20260509185108 70 256 3.0 3.0 0.00 0.00 0.00 74 1017.4
20260509184606 69 248 2.0 3.0 0.00 0.00 0.00 75 1017.4
20260509184103 69 261 0.0 2.0 0.00 0.00 0.00 75 1017.5
20260509183558 69 271 3.0 3.0 0.00 0.00 0.00 75 1017.7
20260509183054 69 275 0.0 2.0 0.00 0.00 0.00 74 1017.8
20260509182551 69 237 3.0 3.0 0.00 0.00 0.00 74 1017.9
20260509182047 69 275 1.0 2.0 0.00 0.00 0.00 74 1017.9
20260509181546 69 292 0.0 0.0 0.00 0.00 0.00 77 1017.9
20260509181043 69 281 1.0 2.0 0.00 0.00 0.00 75 1018.0
20260509180538 68 287 0.0 0.0 0.00 0.00 0.00 77 1018.0
20260509180036 68 301 0.0 0.0 0.00 0.00 0.00 78 1018.4
20260509175531 68 169 3.0 3.0 0.00 0.00 0.00 76 1018.3
20260509175029 68 306 0.0 2.0 0.00 0.00 0.00 76 1018.3
20260509174526 69 272 1.0 2.0 0.00 0.00 0.00 77 1018.2
20260509174020 68 262 2.0 2.0 0.00 0.00 0.00 78 1018.1
20260509173514 68 277 0.0 0.0 0.00 0.00 0.00 80 1018.1
20260509173011 67 259 4.0 5.0 0.00 0.00 0.00 78 1018.2
20260509172508 67 217 3.0 3.0 0.00 0.00 0.00 80 1018.1
20260509172004 67 241 2.0 2.0 0.00 0.00 0.00 81 1017.8
20260509171500 67 303 1.0 2.0 0.00 0.00 0.00 81 1018.2
20260509170956 67 282 1.0 3.0 0.00 0.00 0.00 83 1018.0
20260509170452 66 225 3.0 3.0 0.00 0.00 0.00 82 1017.9
20260509165948 66 295 1.0 2.0 0.00 0.00 0.00 84 1017.9
20260509165447 66 298 1.0 2.0 0.00 0.00 0.00 84 1017.7
20260509164943 66 285 0.0 0.0 0.00 0.00 0.00 84 1018.1
20260509164439 66 299 0.0 2.0 0.00 0.00 0.00 84 1017.9
20260509163935 66 247 3.0 3.0 0.00 0.00 0.00 84 1018.0
20260509163433 66 264 1.0 2.0 0.00 0.00 0.00 84 1018.2
20260509162931 66 303 0.0 2.0 0.00 0.00 0.00 84 1018.4
20260509162431 66 258 1.0 2.0 0.00 0.00 0.00 84 1018.2
20260509161926 66 282 0.0 0.0 0.00 0.00 0.00 84 1018.3
20260509161423 66 223 4.0 7.0 0.00 0.00 0.00 84 1018.6
20260509160918 66 291 1.0 2.0 0.00 0.00 0.00 85 1018.4
20260509160414 65 249 2.0 3.0 0.00 0.00 0.00 85 1018.2
20260509155909 65 267 2.0 3.0 0.00 0.00 0.00 85 1018.2
20260509155407 65 302 0.0 0.0 0.00 0.00 0.00 86 1018.3
20260509154903 65 285 0.0 0.0 0.00 0.00 0.00 87 1018.2
20260509154359 65 292 0.0 0.0 0.00 0.00 0.00 87 1018.0
20260509153856 64 271 0.0 2.0 0.00 0.00 0.00 87 1017.8
20260509153353 65 272 2.0 2.0 0.00 0.00 0.00 87 1018.2
20260509152850 64 278 0.0 0.0 0.00 0.00 0.00 87 1018.0
20260509152346 64 305 1.0 2.0 0.00 0.00 0.00 87 1017.7
20260509151843 64 280 1.0 2.0 0.00 0.00 0.00 87 1017.8
20260509151339 64 278 0.0 0.0 0.00 0.00 0.00 87 1018.2
20260509150838 64 275 0.0 0.0 0.00 0.00 0.00 87 1018.1
20260509150336 64 280 0.0 0.0 0.00 0.00 0.00 87 1018.4
20260509145833 64 206 3.0 5.0 0.00 0.00 0.00 87 1018.6
20260509145333 64 229 5.0 7.0 0.00 0.00 0.00 88 1018.4
20260509144830 64 247 4.0 5.0 0.00 0.00 0.00 88 1018.5
20260509144327 64 221 2.0 3.0 0.00 0.00 0.00 88 1018.5
20260509143824 63 185 4.0 5.0 0.00 0.00 0.00 88 1018.4
20260509143321 63 259 3.0 3.0 0.00 0.00 0.00 88 1018.5
20260509142817 63 238 0.0 2.0 0.00 0.00 0.00 88 1018.5